TimeEDT,TemperatureF,Dew PointF,Humidity,Sea Level PressureIn,VisibilityMPH,Wind Direction,Wind SpeedMPH,Gust SpeedMPH,PrecipitationIn,Events,Conditions,WindDirDegrees,DateUTC
12:51 AM,60.1,54.0,80,29.98,9.0,NNE,4.6,-,N/A,,Overcast,30,2013-05-08 04:51:00
1:51 AM,61.0,54.0,78,29.96,9.0,NNE,5.8,-,N/A,,Overcast,30,2013-05-08 05:51:00
2:51 AM,61.0,52.0,72,29.94,10.0,ENE,9.2,-,N/A,,Overcast,60,2013-05-08 06:51:00
3:51 AM,60.1,52.0,75,29.94,10.0,NE,6.9,-,N/A,,Overcast,50,2013-05-08 07:51:00
4:51 AM,60.1,52.0,75,29.93,10.0,ENE,10.4,-,N/A,,Mostly Cloudy,60,2013-05-08 08:51:00
5:51 AM,60.1,51.1,72,29.94,10.0,ENE,10.4,-,N/A,,Overcast,70,2013-05-08 09:51:00
6:51 AM,59.0,51.1,75,29.95,10.0,NE,5.8,-,N/A,,Overcast,40,2013-05-08 10:51:00
7:51 AM,61.0,52.0,72,29.97,10.0,ENE,9.2,-,N/A,,Mostly Cloudy,60,2013-05-08 11:51:00
8:51 AM,57.9,52.0,81,29.99,10.0,ENE,6.9,-,0.01,Rain,Light Rain,70,2013-05-08 12:51:00
9:51 AM,63.0,53.1,70,29.99,10.0,East,9.2,-,0.00,,Mostly Cloudy,80,2013-05-08 13:51:00
10:51 AM,66.0,51.1,59,29.99,10.0,East,6.9,-,N/A,,Mostly Cloudy,90,2013-05-08 14:51:00
11:51 AM,66.0,48.9,54,29.99,10.0,Variable,3.5,-,N/A,,Mostly Cloudy,0,2013-05-08 15:51:00
12:51 PM,70.0,51.1,51,29.97,10.0,Calm,Calm,-,N/A,,Mostly Cloudy,0,2013-05-08 16:51:00
1:51 PM,69.1,51.1,53,29.96,10.0,NNE,8.1,-,N/A,,Mostly Cloudy,30,2013-05-08 17:51:00
2:51 PM,69.1,50.0,51,29.95,10.0,NE,6.9,-,N/A,,Mostly Cloudy,50,2013-05-08 18:51:00
3:51 PM,68.0,50.0,52,29.94,10.0,NE,4.6,-,N/A,,Mostly Cloudy,50,2013-05-08 19:51:00
4:51 PM,69.1,53.1,57,29.93,10.0,North,8.1,-,N/A,,Mostly Cloudy,350,2013-05-08 20:51:00
5:51 PM,66.9,53.1,61,29.93,9.0,NW,11.5,-,N/A,,Mostly Cloudy,320,2013-05-08 21:51:00
6:51 PM,66.0,52.0,60,29.94,10.0,North,8.1,-,N/A,,Mostly Cloudy,360,2013-05-08 22:51:00
7:51 PM,66.0,54.0,65,29.94,10.0,North,5.8,-,N/A,,Mostly Cloudy,10,2013-05-08 23:51:00
8:51 PM,63.0,53.1,70,29.95,10.0,North,4.6,-,N/A,,Mostly Cloudy,360,2013-05-09 00:51:00
9:51 PM,63.0,54.0,72,29.96,9.0,NNE,6.9,-,0.00,Rain,Light Rain,30,2013-05-09 01:51:00
10:51 PM,60.1,55.9,86,29.97,8.0,Calm,Calm,-,0.02,Rain,Light Rain,0,2013-05-09 02:51:00
11:51 PM,59.0,55.9,90,29.97,7.0,North,3.5,-,0.02,Rain,Light Rain,350,2013-05-09 03:51:00